Simultaneous Nadir Overpasses (SNOs) Predictions

Prediction of SNOs between FY3D and AQUA Satellite Orbit:

Table of predicted SNOs for the next 14.0 days since TLE Epoch: 3/30/2024
Index Date (FY3D) Time (FY3D) Lat,Lon (FY3D) SZA (FY3D ) Date (AQUA) Time (AQUA) Lat,Lon (AQUA) SZA (AQUA ) Distance(km) Time Diff (sec)
1 03/30/2024 23:13:03 -79.28, -7.27 104.37 03/30/2024 23:12:59 -79.27, -7.17 104.38 2.01 4
2 04/02/2024 11:16:51 79.30, -8.34 74.69 04/02/2024 11:17:29 79.30, -8.45 74.69 2.43 38
3 04/02/2024 12:07:28 -79.04, 160.94 105.69 04/02/2024 12:06:45 -79.05, 160.84 105.67 2.35 43
4 04/05/2024 00:11:22 79.28, 158.25 73.68 04/05/2024 00:11:18 79.27, 158.37 73.66 2.69 4
5 04/07/2024 12:15:11 -79.40, 156.31 107.10 04/07/2024 12:15:47 -79.40, 156.44 107.12 2.85 36
6 04/07/2024 13:05:47 79.06, -33.67 72.40 04/07/2024 13:05:01 79.07, -33.75 72.42 1.74 46
7 04/10/2024 00:19:00 79.49, 154.72 72.09 04/10/2024 00:20:13 79.48, 154.80 72.05 1.92 73
8 04/10/2024 01:09:38 -79.27, -36.16 108.25 04/10/2024 01:09:30 -79.27, -36.08 108.26 1.80 8
9 04/12/2024 13:13:24 79.30, -37.28 70.87 04/12/2024 13:13:52 79.30, -37.38 70.87 2.26 28



Historial Predications of SNOs between FY3D and AQUA
